SCP
0 0 0 0 0 0 0 0 0 0 0 0 0 0 0 0 0 0 0 0 0 0 0 0 0 0 0 0 0 0 0 0 0 0 0 0 0 0 0 0 0 0 0 0
0 0 0 0 0 0 0 0 0 0 0 0 0 0 0 0 0 0 0 0 0 0 0 0 0 0 0 0 0 0 0 0 0 0 0 0 0 0 0 0 0 0 0 0
0 0 0 0 0 0 0 0 0 0 0 0 0 0 0 0 0 0 0 0 0 0 0 0 0 0 0 0 0 0 0 0 0 0 0 0 0 0 0 0 0 0 0 0
0 0 0 0 0 0 0 0 0 0 0 0 0 0 0 0 0 0 0 0 0 0 0 0 0 0 0 0 0 0 0 0 0 0 0 0 0 0 0 0 0 0 0 0
0 0 0 0 0 0 0 0 0 0 0 0 0 0 0 0 0 0 0 0 0 0 0 0 0 0 0 0 0 0 0 0 0 0 0 0 0 0 0 0 0 0 0 0
0 0 0 0 0 0 0 0 0 0 0 0 0 0 0 0 0 0 0 0 0 0 0 0 0 0 0 0 0 0 0 0 0 0 0 0 0 0 0 0 0 0 0 0
0 0 0 0 0 0 0 0 0 0 0 0 0 0 0 0 0 0 0 0 0 0 0 0 0 0 0 0 0 0 0 0 0 0 0 0 0 0 0 0 0 0 0 0
0 0 0 0 0 0 0 0 0 0 0 0 0 0 0 0 0 0 0 0 0 0 0 0 0 0 0 0 0 0 0 0 0 0 0 0 0 0 0 0 0 0 0 0
0 0 0 0 0 0 0 0 0 0 0 0 0 0 0 0 0 0 0 0 0 0 0 0 0 0 0 0 0 0 0 0 0 0 0 0 0 0 0 0 0 0 0 0
0 0 0 0 0 0 0 0 0 0 0 0 0 0 0 0 0 0 0 0 0 0 0 0 0 0 0 0 0 0 0 0 0 0 0 0 0 0 0 0 0 0 0 0
0 0 0 0 0 0 0 0 0 0 0 0 0 0 0 0 0 0 0 0 0 0 0 0 0 0 0 0 0 0 0 0 0 0 0 0 0 0 0 0 0 0 0 0
0 0 0 0 0 0 0 0 0 0 0 0 0 0 0 0 0 0 0 0 0 0 0 0 0 0 0 0 0 0 0 0 0 0 0 0 0 0 0 0 0 0 0 0
0 0 0 0 0 0 0 0 0 0 0 0 0 0 0 0 0 0 0 0 0 0 0 0 0 0 0 0 0 0 0 0 0 0 0 0 0 0 0 0 0 0 0 0
0 0 0 0 0 0 0 0 0 0 0 0 0 0 0 0 0 0 0 0 0 0 0 0 0 0 0 0 0 0 0 0 0 0 0 0 0 0 0 0 0 0 0 0
0 0 0 0 0 0 0 0 0 0 0 0 0 0 0 0 0 0 0 0 0 0 0 0 0 0 0 0 0 0 0 0 0 0 0 0 0 0 0 0 0 0 0 0
0 0 0 0 0 0 0 0 0 0 0 0 0 0 0 0 0 0 0 0 0 0 0 0 0 0 0 0 0 0 0 0 0 0 0 0 0 0 0 0 0 0 0 0
0 0 0 0 0 0 0 0 0 0 0 0 0 0 0 0 0 0 0 0 0 0 0 0 0 0 0 0 0 0 0 0 0 0 0 0 0 0 0 0 0 0 0 0
0 0 0 0 0 0 0 0 0 0 0 0 0 0 0 0 0 0 0 0 0 0 0 0 0 0 0 0 0 0 0 0 0 0 0 0 0 0 0 0 0 0 0 0
0 0 0 0 0 0 0 0 0 0 0 0 0 0 0 0 0 0 0 0 0 0 0 0 0 0 0 0 0 0 0 0 0 0 0 0 0 0 0 0 0 0 0 0
0 0 0 0 0 0 0 0 0 0 0 0 0 0 0 0 0 0 0 0 0 0 0 0 0 0 0 0 0 0 0 0 0 0 0 0 0 0 0 0 0 0 0 0
0 0 0 0 0 0 0 0 0 0 0 0 0 0 0 0 0 0 0 0 0 0 0 0 0 0 0 0 0 0 0 0 0 0 0 0 0 0 0 0 0 0 0 0
0 0 0 0 0 0 0 0 0 0 0 0 0 0 0 0 0 0 0 0 0 0 0 0 0 0 0 0 0 0 0 0 0 0 0 0 0 0 0 0 0 0 0 0
0 0 0 0 0 0 0 0 0 0 0 0 0 0 0 0 0 0 0 0 0 0 0 0 0 0 0 0 0 0 0 0 0 0 0 0 0 0 0 0 0 0 0 0
0 0 0 0 0 0 0 0 0 0 0 0 0 0 0 0 0 0 0 0 0 0 0 0 0 0 0 0 0 0 0 0 0 0 0 0 0 0 0 0 0 0 0 0
0 0 0 0 0 0 0 0 0 0 0 0 0 0 0 0 0 0 0 0 0 0 0 0 0 -0 0 0 0 0 0 0 0 0 0 0 0 0 0 0 0 0 0 0
0 0 0 0 0 0 0 0 0 0 0 -0 -0 -0 0 0 0 0 -0 -0 -0 -0 0 0 0 0 0 0 0 0 0 0 0 0 0 0 0 0 0 0 0 0 0 0
0 0 0 0 0 0 0 0 0 0 0 -0 -0 -0 0 0 0 0 -0 -0 -0 -0 0 0 0 0 0 0 0 0 0 0 0 0 0 0 0 0 0 0 0 0 0 0
Wind_Speed
1 2 3 4 7 9 10 6 6 5 8 10 7 5 4 4 5 6 6 6 6 5 4 4 3 3 2 2 2 2 3 5 6 6 6 7 7 7 7 7 7 8 7 7
5 3 5 6 8 9 10 8 9 10 9 4 3 3 4 4 5 7 7 6 6 5 5 4 3 3 2 2 1 2 3 4 4 5 6 6 7 7 7 7 7 8 8 8
5 4 5 8 8 10 7 7 7 6 3 3 5 4 4 4 5 6 6 6 6 5 5 4 3 2 2 2 1 2 3 3 4 4 5 6 6 7 7 6 7 7 7 7
3 6 7 4 4 4 6 5 7 8 7 6 6 6 5 6 6 6 6 6 6 5 5 4 3 2 2 2 3 2 2 3 3 4 4 5 5 6 6 6 6 6 6 7
4 5 3 4 5 6 5 3 3 6 5 3 3 5 4 2 5 5 4 5 5 5 4 4 3 3 4 3 3 3 3 3 2 3 4 4 5 5 5 6 6 5 5 6
5 5 4 5 6 4 4 4 3 3 3 1 3 3 3 3 1 3 4 4 4 5 5 5 4 4 5 4 4 3 3 3 3 3 3 4 4 5 4 4 5 5 4 5
7 6 3 5 5 5 6 3 3 1 2 2 4 4 4 2 1 2 3 4 5 5 5 5 4 5 6 5 4 3 3 4 4 4 4 4 4 4 4 4 4 4 4 4
7 7 4 6 7 6 3 4 1 2 2 3 4 4 3 2 2 2 3 4 5 6 6 5 5 6 7 6 4 4 4 5 5 5 4 4 4 4 4 4 5 4 4 3
5 1 5 3 2 2 3 3 2 2 2 3 3 3 2 2 2 2 3 4 5 6 6 6 6 7 8 6 5 5 6 6 6 6 5 5 5 5 4 4 4 4 4 3
5 5 4 3 2 1 3 3 3 3 2 2 2 2 2 2 1 1 2 3 4 5 6 6 6 7 8 6 5 7 7 7 7 7 7 6 4 5 5 4 4 4 4 4
7 5 6 6 4 1 1 1 1 1 1 1 1 2 3 2 2 2 2 2 3 5 5 6 6 6 6 6 7 8 9 8 8 7 7 6 6 5 6 5 4 5 5 4
7 8 8 7 6 3 3 3 2 3 4 5 4 4 3 4 4 4 3 2 2 4 5 6 6 6 6 6 7 9 9 8 7 6 6 6 6 6 9 10 7 9 10 8
2 5 5 7 6 5 4 4 5 5 5 6 6 5 5 5 5 5 5 5 5 4 5 6 6 6 6 6 7 9 10 9 7 7 7 7 7 7 7 8 13 14 14 14
7 8 8 8 7 6 7 7 7 7 7 7 7 7 6 6 7 7 7 7 6 6 6 6 6 7 8 8 7 9 10 9 8 7 7 8 8 8 7 8 7 7 11 16
10 7 7 9 9 8 8 8 8 8 8 8 8 8 8 8 8 8 8 7 7 8 8 8 8 9 10 10 9 9 8 7 7 7 8 8 8 8 8 9 9 8 7 8
12 10 12 12 11 10 9 9 8 8 8 8 8 8 8 8 8 8 9 8 9 10 10 10 10 11 11 11 10 8 7 8 8 8 8 8 8 9 9 9 9 9 9 8
18 16 15 14 13 11 10 8 8 8 8 8 8 7 7 8 9 9 9 9 9 9 10 11 11 11 11 12 11 8 8 7 7 8 8 8 8 9 9 9 10 10 9 9
12 13 14 15 13 12 11 10 8 8 8 7 7 7 8 9 9 9 8 8 8 10 11 12 12 12 11 13 12 9 8 8 8 8 8 8 8 9 9 10 10 12 10 9
13 15 14 14 13 12 11 10 9 8 7 7 7 8 8 8 8 7 8 9 10 10 11 12 13 12 12 14 14 9 9 10 9 9 8 9 9 9 9 10 10 11 10 10
16 16 15 14 12 11 10 9 9 8 7 7 7 7 7 7 7 7 7 8 8 7 9 11 11 11 12 13 14 9 10 11 11 10 9 9 9 10 10 10 11 11 11 10
17 16 15 13 12 10 9 9 8 8 7 6 6 6 6 6 6 6 6 6 7 9 9 9 8 10 11 12 11 9 10 10 10 10 10 10 11 11 11 11 11 11 11 11
15 14 14 12 11 10 8 8 8 8 7 6 5 5 5 4 5 5 5 4 5 8 7 6 8 12 14 13 8 9 10 10 10 10 10 10 11 11 11 12 12 12 12 12
13 13 12 12 11 10 9 7 7 6 6 5 4 3 3 3 2 3 3 4 5 8 7 6 10 14 16 10 8 9 9 10 10 10 10 10 11 11 11 13 12 12 12 12
12 12 11 10 10 10 9 8 7 5 5 4 3 2 1 0 1 1 2 3 5 8 6 6 10 13 13 7 8 9 9 9 9 10 10 10 10 10 10 11 11 12 12 14
11 11 11 10 9 7 8 8 7 6 5 4 4 3 2 2 2 3 4 5 6 8 7 7 10 11 9 8 8 9 9 9 9 10 9 9 10 10 10 10 11 11 11 12
10 9 8 8 7 6 6 6 5 5 4 4 3 3 3 3 4 4 5 6 7 8 7 7 7 8 7 8 9 9 9 9 9 9 10 10 11 11 10 11 14 11 11 11
9 8 6 6 6 6 5 5 5 5 5 4 4 3 3 4 4 5 6 6 6 6 6 7 7 7 7 8 9 9 9 9 9 10 10 10 10 10 11 13 11 11 11 11
Wind_Direction
116 108 197 211 199 201 225 255 273 293 293 304 322 316 290 254 233 227 231 234 240 249 264 267 266 267 271 288 307 325 339 350 358 357 359 357 359 358 357 357 359 5 6 6
181 186 219 236 225 215 230 246 257 276 285 291 311 286 266 242 227 230 231 233 237 243 250 260 261 263 256 258 278 304 329 351 357 349 359 358 358 358 360 0 2 7 6 8
193 172 225 234 213 204 211 218 236 260 307 328 293 287 282 265 236 237 235 231 234 238 238 250 264 274 255 261 269 282 314 339 344 349 355 359 360 1 358 1 4 4 5 6
210 200 229 94 99 191 219 235 233 258 286 295 292 293 280 265 252 241 230 225 225 228 226 233 228 221 227 227 249 276 301 317 332 334 345 352 356 357 354 358 1 358 360 1
229 225 224 169 175 187 208 195 208 245 275 297 293 260 221 209 237 245 234 224 220 224 222 226 222 220 222 227 240 259 278 294 305 318 330 337 344 347 353 350 351 350 357 354
221 235 220 138 129 168 221 190 136 231 282 284 254 270 72 68 221 229 222 217 213 211 220 222 215 215 236 248 253 255 261 274 285 302 310 316 330 335 340 338 338 338 348 347
225 236 228 113 139 180 215 111 102 232 277 243 263 342 25 7 285 224 211 207 209 213 220 225 217 219 240 252 261 260 253 262 268 272 284 298 309 312 313 323 326 332 337 338
207 220 198 133 171 205 42 53 335 275 283 274 287 315 310 291 274 233 213 205 211 218 221 220 220 230 245 254 261 248 241 249 257 263 270 276 282 293 301 307 305 313 321 336
216 199 75 158 210 3 324 286 301 301 304 287 279 293 311 303 281 244 230 215 215 226 233 226 221 233 252 254 244 238 240 247 254 257 257 263 271 278 283 284 293 307 313 318
219 207 178 173 188 247 274 272 291 292 290 279 282 319 332 330 322 283 248 233 227 231 238 240 233 232 249 258 245 244 247 251 251 253 254 254 255 266 273 281 286 293 302 305
221 173 169 193 192 205 225 229 206 140 77 25 8 17 7 7 6 348 318 259 241 246 254 260 255 247 250 253 250 251 254 252 252 252 256 261 254 252 262 264 270 278 292 293
215 186 187 170 154 165 163 135 114 119 95 67 48 37 32 33 23 9 357 335 292 275 274 276 276 272 268 260 255 259 263 264 259 255 249 251 257 250 225 236 232 229 244 265
127 131 129 129 139 151 144 117 101 91 83 74 60 50 46 47 37 28 19 7 348 330 316 309 305 304 305 291 267 262 265 267 264 260 256 251 252 258 261 232 224 233 234 235
152 147 151 160 151 147 138 125 110 96 82 70 62 56 54 54 47 37 26 16 12 11 4 355 348 343 336 320 294 274 270 267 264 259 258 258 257 256 258 264 257 242 223 223
180 188 155 142 141 142 143 139 121 100 86 75 65 59 54 52 48 39 29 23 30 31 22 14 8 358 346 334 317 298 284 276 270 266 258 257 256 255 255 256 257 259 254 217
161 152 146 147 145 143 143 136 119 102 89 78 68 61 59 58 54 47 38 32 34 33 23 15 9 358 348 341 331 314 301 291 283 279 270 261 256 253 252 252 253 254 252 250
157 162 162 156 149 142 134 123 113 106 95 82 72 67 65 64 58 48 40 38 41 36 25 17 6 355 354 352 342 329 320 312 291 277 274 272 269 263 260 256 255 255 253 247
171 160 157 151 144 137 130 122 113 105 96 89 84 75 65 58 53 46 39 37 40 38 26 15 4 354 2 2 349 338 333 329 322 311 301 292 287 280 274 268 263 261 261 248
146 141 138 137 136 133 129 124 117 108 102 97 88 77 69 60 54 48 45 42 33 26 15 7 355 359 4 6 351 343 345 341 336 329 321 312 299 292 287 282 277 272 267 263
139 137 135 134 134 132 128 126 121 113 105 100 95 87 77 64 53 49 50 52 37 15 4 1 358 6 2 2 351 351 352 348 345 341 338 332 324 316 308 300 293 288 282 274
142 141 139 138 135 133 133 132 127 120 113 105 97 89 81 70 56 46 39 42 30 9 358 357 4 7 1 351 348 357 356 354 351 349 345 341 336 331 326 320 313 304 297 291
146 146 145 143 142 140 139 135 130 127 124 118 109 99 87 71 56 50 48 27 8 356 346 359 5 2 349 340 351 357 356 356 354 352 350 346 342 338 335 332 327 322 315 308
150 150 150 151 149 143 142 141 141 140 138 134 125 108 83 54 26 12 18 9 353 346 337 353 348 342 336 337 349 350 351 353 351 349 348 346 344 341 338 335 332 329 325 322
153 154 153 151 150 153 155 154 154 153 153 154 152 153 162 326 355 344 326 320 321 320 321 335 329 333 327 331 341 342 344 346 345 342 340 338 338 338 336 335 333 330 327 324
156 156 157 162 167 168 163 162 165 168 177 182 186 199 225 257 285 304 310 314 318 310 315 326 327 323 321 332 335 334 333 336 335 330 329 330 330 330 330 330 330 328 327 326
161 165 169 177 174 169 170 175 182 182 187 194 205 216 228 242 261 273 285 296 303 305 307 314 320 318 326 331 329 326 324 325 325 324 326 325 324 325 325 327 326 325 324 323
168 168 172 178 181 186 187 190 196 197 202 213 227 239 256 268 275 284 290 294 301 304 308 311 315 320 322 322 321 322 323 323 322 322 321 321 320 320 321 322 321 319 318 317